Showing default

FLOCK 4BE 23, 60490

Orbit data source: Space-Track

FLOCK 4BE 23, 60490 is a payload satellite owned by Planet (US) in SSO that was launched on Fri, 16 Aug 2024 UTC via an FALCON 9 launch vehicle from the Air Force Western Test Range (AFWTR). Payload-class satellites include a variety of spacecraft equipped with specific instruments for various scientific and technological missions. These include communications satellites like Starlink; space stations such as the ISS; scientific satellites like the Hubble; Earth observation satellites from companies like Planet Labs, Umbra, and HawkEye 360; GPS; miniature CubeSats for education and research; and military/defense satellites.

Loading next visibility...
Identifier
60490, 2024-149Y
Orbit
SSO
Country
Flag of USUS
Related business
Manufacturer
Planet
Mission
Operational Commercial Imaging
Bus & Motor
CUBESAT 3U, Unknown motor
Mass
5.7 kg wet, 5.7 kg dry
Launch date (UTC)
2024-08-16 (1 year ago)
Launch vehicle
FALCON 9
Launch site
Air Force Western Test Range (AFWTR)
Object type
Payload
Rocket body
Debris
Shape & HBR
Box + 2 Pan, 1.0 m
Radar Cross Section
0.072 m², Medium (>0.1 m² and < 1m²)

Expand to show TLE details & history
Last TLE update: 7 hours ago

TLE from 7 hours ago
0 FLOCK 4BE 23
1 60490U 24149Y   25300.46597331  .00015169  00000-0  52024-3 0  9995
2 60490  97.4002  17.6983 0004232  38.6321 321.5221 15.30256270 66516
Epoch: 2025-10-27T11:11Z
TLE epoch observation values (Epoch: 2025-10-27T11:11:00.093Z)
Latitude
-0.00014°
Longitude
173.88051°
Altitude
475.881 km
Speed
7.629 km/s
True Right ascension
01h 10m 47s
True Declination
0° 00' 00"
Sunlit
Object was in full shadow at epoch
Visualization orbit readout
Latitude
Unknown
Longitude
Unknown
Altitude
Unknown
Speed
Unknown
Apparent Right ascension
Unknown
Apparent Declination
Unknown
Sunlit
N/A
Visualization observer readout
Local Sidereal Time
13:22:00
Azimuth
Unknown
Elevation
Unknown
Doppler factor
Unknown
Orbital elements
Apogee altitude
474.898 km
Perigee altitude
469.1 km
Semi-major axis
6,850.136 km
Eccentricity
0.00042
Inclination
97.4002°
RAAN
17.6983°
Arg. of periapsis
38.6321°
True anomaly
321.49191°
Mean anomaly
321.5221°
Eccentric anomaly
321.50701°
Mean motion
3.8282 °/min
Orbital period
94.04 mins
BSTAR
0.00052024
Loading maneuver chart data...
Computing Atmospheric mass density...
Loading historical data...
Loading historical data...
Loading historical data...
Loading historical data...
Loading historical data...
Loading historical data...
Loading historical data...

Documentation

Showing up to 5 results
|